�������l�o���
Date,Time,MP-1(��Sv/h),MP-2(��Sv/h),MP-3(��Sv/h),MP-4(��Sv/h),MP-5(��Sv/h),MP-6(��Sv/h),MP-7(��Sv/h),MP-8(��Sv/h),����,����(m/s),���J
2023/10/14,00:00,0.522,0.795,0.487,0.990,0.711,0.321,0.571,0.530,���k��,5.4,��
2023/10/14,00:10,0.522,0.794,0.488,0.987,0.713,0.319,0.572,0.530,���k��,5.6,��
2023/10/14,00:20,0.521,0.793,0.488,0.988,0.714,0.320,0.571,0.530,���k��,5.2,��
2023/10/14,00:30,0.521,0.794,0.489,0.988,0.714,0.319,0.571,0.531,���k��,5.1,��
2023/10/14,00:40,0.521,0.794,0.488,0.989,0.713,0.320,0.571,0.530,���k��,5.3,��
2023/10/14,00:50,0.520,0.793,0.487,0.989,0.713,0.320,0.570,0.529,���k��,5.5,��
2023/10/14,01:00,0.521,0.792,0.488,0.987,0.712,0.319,0.571,0.530,���k��,5.3,��
2023/10/14,01:10,0.521,0.795,0.488,0.989,0.713,0.319,0.572,0.532,��,5.9,��
2023/10/14,01:20,0.521,0.794,0.487,0.989,0.711,0.320,0.571,0.532,���k��,5.7,��
2023/10/14,01:30,0.521,0.794,0.488,0.989,0.712,0.319,0.571,0.530,���k��,6.0,��
2023/10/14,01:40,0.521,0.793,0.489,0.988,0.713,0.318,0.571,0.529,���k��,5.5,��
2023/10/14,01:50,0.521,0.792,0.486,0.987,0.712,0.319,0.571,0.530,���k��,5.6,��
2023/10/14,02:00,0.520,0.793,0.489,0.988,0.712,0.318,0.571,0.530,���k��,5.7,��
2023/10/14,02:10,0.521,0.794,0.489,0.988,0.712,0.318,0.572,0.531,���k��,5.3,��
2023/10/14,02:20,0.520,0.794,0.488,0.989,0.711,0.318,0.573,0.531,���k��,6.0,��
2023/10/14,02:30,0.520,0.793,0.487,0.989,0.713,0.319,0.571,0.530,���k��,6.5,��
2023/10/14,02:40,0.521,0.792,0.487,0.989,0.712,0.318,0.572,0.529,��,6.2,��
2023/10/14,02:50,0.522,0.795,0.489,0.987,0.712,0.318,0.571,0.531,���k��,6.7,��
2023/10/14,03:00,0.519,0.794,0.489,0.990,0.714,0.319,0.572,0.530,���k��,7.0,��
2023/10/14,03:10,0.520,0.795,0.488,0.989,0.714,0.319,0.572,0.530,���k��,7.1,��
2023/10/14,03:20,0.521,0.793,0.487,0.988,0.713,0.320,0.571,0.531,���k��,6.8,��
2023/10/14,03:30,0.522,0.794,0.486,0.988,0.712,0.319,0.570,0.531,���k��,5.7,��
2023/10/14,03:40,0.521,0.793,0.489,0.988,0.712,0.320,0.572,0.530,��,6.7,��
2023/10/14,03:50,0.521,0.792,0.489,0.988,0.712,0.319,0.571,0.529,���k��,7.4,��
2023/10/14,04:00,0.522,0.791,0.488,0.988,0.712,0.318,0.571,0.531,���k��,6.4,��
2023/10/14,04:10,0.521,0.793,0.488,0.987,0.712,0.319,0.572,0.531,���k��,5.9,��
2023/10/14,04:20,0.521,0.791,0.488,0.991,0.712,0.319,0.570,0.530,��,7.2,��
2023/10/14,04:30,0.521,0.793,0.488,0.988,0.713,0.318,0.571,0.530,���k��,7.2,��
2023/10/14,04:40,0.520,0.792,0.489,0.988,0.713,0.318,0.571,0.530,��,7.1,��
2023/10/14,04:50,0.521,0.794,0.488,0.989,0.713,0.319,0.572,0.532,��,7.3,��
2023/10/14,05:00,0.521,0.793,0.489,0.989,0.712,0.319,0.571,0.529,��,6.9,��
2023/10/14,05:10,0.521,0.793,0.488,0.987,0.713,0.318,0.573,0.531,���k��,7.3,��
2023/10/14,05:20,0.521,0.794,0.489,0.989,0.710,0.320,0.571,0.530,���k��,7.0,��
2023/10/14,05:30,0.520,0.792,0.488,0.990,0.713,0.318,0.571,0.531,���k��,6.2,��
2023/10/14,05:40,0.519,0.792,0.487,0.989,0.712,0.319,0.569,0.530,��,5.8,��
2023/10/14,05:50,0.521,0.792,0.488,0.990,0.713,0.318,0.572,0.530,���k��,6.6,��
2023/10/14,06:00,0.520,0.794,0.489,0.990,0.712,0.318,0.571,0.531,��,6.5,��
2023/10/14,06:10,0.521,0.792,0.488,0.989,0.712,0.319,0.571,0.530,���k��,6.3,��
2023/10/14,06:20,0.521,0.792,0.488,0.990,0.712,0.318,0.571,0.531,���k��,5.4,��
2023/10/14,06:30,0.522,0.792,0.488,0.990,0.713,0.317,0.570,0.530,��,5.4,��
2023/10/14,06:40,0.520,0.792,0.488,0.991,0.712,0.320,0.572,0.531,���k��,5.7,��
2023/10/14,06:50,0.521,0.792,0.488,0.990,0.712,0.319,0.572,0.530,���k��,5.0,��
2023/10/14,07:00,0.520,0.795,0.489,0.991,0.712,0.319,0.571,0.531,���k��,5.0,��
2023/10/14,07:10,0.519,0.794,0.489,0.988,0.711,0.320,0.571,0.531,��,4.3,��
2023/10/14,07:20,0.521,0.795,0.491,0.989,0.710,0.319,0.571,0.532,��,4.9,��
2023/10/14,07:30,0.520,0.794,0.489,0.989,0.714,0.319,0.571,0.530,��,4.6,��
2023/10/14,07:40,0.522,0.794,0.488,0.990,0.714,0.320,0.572,0.528,���k��,3.9,��
2023/10/14,07:50,0.521,0.794,0.489,0.988,0.714,0.318,0.573,0.531,��,4.6,��
2023/10/14,08:00,0.521,0.794,0.489,0.990,0.713,0.319,0.572,0.532,���k��,3.6,��
2023/10/14,08:10,0.521,0.794,0.491,0.990,0.711,0.321,0.573,0.531,��,2.9,��
2023/10/14,08:20,0.521,0.792,0.489,0.989,0.713,0.320,0.572,0.531,��,2.8,��
2023/10/14,08:30,0.521,0.795,0.490,0.989,0.712,0.320,0.569,0.532,��,2.3,��
2023/10/14,08:40,0.519,0.792,0.490,0.992,0.715,0.319,0.569,0.532,��,2.3,��
2023/10/14,08:50,0.520,0.792,0.491,0.990,0.713,0.320,0.570,0.531,��,2.3,��
2023/10/14,09:00,0.521,0.792,0.491,0.990,0.713,0.319,0.571,0.532,��,2.3,��
2023/10/14,09:10,0.521,0.795,0.491,0.989,0.713,0.321,0.569,0.530,��,2.3,��
2023/10/14,09:20,0.522,0.792,0.491,0.990,0.712,0.321,0.571,0.531,���쐼,2.3,��
2023/10/14,09:30,0.521,0.794,0.491,0.991,0.712,0.320,0.570,0.532,��,2.0,��
2023/10/14,09:40,0.521,0.795,0.489,0.991,0.710,0.320,0.570,0.531,��,2.2,��
2023/10/14,09:50,0.522,0.795,0.489,0.990,0.712,0.319,0.571,0.530,��,2.0,��
2023/10/14,10:00,0.521,0.794,0.490,0.991,0.715,0.319,0.570,0.530,���k��,2.3,��
2023/10/14,10:10,0.520,0.795,0.490,0.991,0.714,0.320,0.571,0.529,��,1.7,��
2023/10/14,10:20,0.522,0.794,0.488,0.991,0.713,0.319,0.570,0.530,�k�k��,2.5,��
2023/10/14,10:30,0.524,0.795,0.489,0.993,0.715,0.319,0.570,0.529,��,0.9,��
2023/10/14,10:40,0.524,0.796,0.490,0.992,0.714,0.320,0.571,0.530,���쓌,2.2,��
2023/10/14,10:50,0.523,0.796,0.490,0.990,0.714,0.319,0.570,0.531,���쓌,3.5,��
2023/10/14,11:00,0.523,0.796,0.490,0.992,0.717,0.320,0.570,0.531,�쓌,3.3,��
2023/10/14,11:10,0.523,0.795,0.491,0.992,0.715,0.319,0.572,0.530,�쓌,4.0,��
2023/10/14,11:20,0.523,0.798,0.491,0.993,0.716,0.320,0.570,0.531,�쓌,3.2,��
2023/10/14,11:30,0.523,0.796,0.489,0.990,0.716,0.319,0.571,0.530,���쓌,3.2,��
2023/10/14,11:40,0.524,0.796,0.489,0.994,0.716,0.320,0.571,0.531,���쓌,2.9,��
2023/10/14,11:50,0.523,0.797,0.488,0.994,0.717,0.319,0.569,0.529,���쓌,2.8,��
2023/10/14,12:00,0.523,0.797,0.490,0.993,0.717,0.319,0.571,0.530,���쓌,3.3,��
2023/10/14,12:10,0.524,0.799,0.491,0.994,0.716,0.319,0.571,0.529,�쓌,3.3,��
2023/10/14,12:20,0.524,0.796,0.491,0.993,0.717,0.319,0.571,0.531,��쓌,4.3,��
2023/10/14,12:30,0.524,0.799,0.490,0.994,0.717,0.321,0.572,0.530,��쓌,4.1,��
2023/10/14,12:40,0.524,0.799,0.491,0.992,0.718,0.320,0.570,0.529,�쓌,4.4,��
2023/10/14,12:50,0.524,0.798,0.491,0.993,0.716,0.320,0.572,0.532,��쓌,3.8,��
2023/10/14,13:00,0.524,0.797,0.490,0.993,0.719,0.319,0.571,0.531,��쓌,4.5,��
2023/10/14,13:10,0.524,0.799,0.492,0.993,0.719,0.320,0.572,0.530,��쓌,4.6,��
2023/10/14,13:20,0.525,0.800,0.491,0.995,0.717,0.319,0.570,0.530,��쓌,5.6,��
2023/10/14,13:30,0.524,0.797,0.491,0.992,0.719,0.319,0.570,0.530,��쓌,6.2,��
2023/10/14,13:40,0.525,0.797,0.491,0.994,0.719,0.320,0.569,0.533,��쓌,6.1,��
2023/10/14,13:50,0.525,0.796,0.491,0.994,0.718,0.321,0.572,0.530,��쓌,6.8,��
2023/10/14,14:00,0.523,0.800,0.491,0.994,0.718,0.320,0.570,0.530,��쓌,6.1,��
2023/10/14,14:10,0.524,0.798,0.491,0.995,0.719,0.319,0.572,0.531,��쓌,6.1,��
2023/10/14,14:20,0.524,0.800,0.491,0.994,0.719,0.321,0.571,0.531,��쓌,7.0,��
2023/10/14,14:30,0.526,0.799,0.490,0.993,0.718,0.321,0.573,0.531,��쓌,7.0,��
2023/10/14,14:40,0.523,0.799,0.491,0.992,0.719,0.319,0.571,0.530,��쓌,6.1,��
2023/10/14,14:50,0.523,0.799,0.492,0.993,0.719,0.321,0.571,0.530,��쓌,7.0,��
2023/10/14,15:00,0.524,0.797,0.491,0.993,0.720,0.320,0.570,0.531,��쓌,7.5,��
2023/10/14,15:10,0.523,0.799,0.493,0.993,0.720,0.320,0.572,0.530,��쓌,7.3,��
2023/10/14,15:20,0.524,0.799,0.491,0.992,0.719,0.319,0.571,0.531,��쓌,6.7,��
2023/10/14,15:30,0.523,0.799,0.491,0.993,0.720,0.319,0.570,0.530,��쓌,6.3,��
2023/10/14,15:40,0.525,0.799,0.492,0.994,0.721,0.320,0.572,0.530,��쓌,5.5,��
2023/10/14,15:50,0.524,0.799,0.491,0.992,0.719,0.318,0.571,0.529,��쓌,6.4,��
2023/10/14,16:00,0.524,0.798,0.492,0.994,0.720,0.320,0.571,0.529,��쓌,6.0,��
2023/10/14,16:10,0.523,0.800,0.488,0.992,0.720,0.321,0.571,0.530,��,6.0,��
2023/10/14,16:20,0.523,0.798,0.490,0.990,0.719,0.322,0.571,0.529,��쓌,5.1,��
2023/10/14,16:30,0.526,0.800,0.491,0.992,0.719,0.320,0.571,0.530,��쓌,5.8,��
2023/10/14,16:40,0.526,0.798,0.491,0.990,0.718,0.321,0.574,0.531,��쓌,5.7,��
2023/10/14,16:50,0.526,0.800,0.489,0.990,0.718,0.321,0.572,0.532,��,5.9,��
2023/10/14,17:00,0.525,0.802,0.491,0.994,0.720,0.321,0.573,0.533,��,7.0,��
2023/10/14,17:10,0.524,0.802,0.489,0.994,0.719,0.321,0.573,0.533,��,6.5,��
2023/10/14,17:20,0.524,0.804,0.490,0.997,0.721,0.321,0.574,0.531,��,6.4,��
2023/10/14,17:30,0.525,0.803,0.491,0.994,0.721,0.321,0.574,0.531,��,6.3,��
2023/10/14,17:40,0.525,0.803,0.492,0.995,0.722,0.322,0.572,0.531,��,6.1,��
2023/10/14,17:50,0.525,0.802,0.491,0.996,0.722,0.321,0.573,0.533,��쐼,7.1,��
2023/10/14,18:00,0.524,0.802,0.492,0.994,0.721,0.321,0.571,0.532,��쐼,7.1,��
2023/10/14,18:10,0.527,0.802,0.493,0.994,0.721,0.320,0.572,0.530,��쐼,6.9,��
2023/10/14,18:20,0.526,0.802,0.493,0.994,0.720,0.321,0.572,0.533,��쐼,6.8,��
2023/10/14,18:30,0.527,0.802,0.493,0.997,0.721,0.322,0.572,0.530,��쐼,6.2,��
2023/10/14,18:40,0.525,0.802,0.492,0.993,0.721,0.322,0.572,0.531,��쐼,5.5,��
2023/10/14,18:50,0.527,0.802,0.492,0.995,0.721,0.322,0.573,0.532,��쐼,5.1,��
2023/10/14,19:00,0.527,0.802,0.493,0.997,0.722,0.322,0.574,0.531,��쐼,4.5,��
2023/10/14,19:10,0.526,0.801,0.492,0.994,0.723,0.320,0.573,0.530,��쐼,5.0,��
2023/10/14,19:20,0.526,0.802,0.493,0.996,0.722,0.320,0.572,0.531,��쐼,4.3,��
2023/10/14,19:30,0.526,0.800,0.492,0.996,0.719,0.321,0.573,0.531,��쐼,4.3,��
2023/10/14,19:40,0.528,0.803,0.492,0.994,0.721,0.321,0.572,0.531,��쐼,4.7,��
2023/10/14,19:50,0.526,0.800,0.491,0.994,0.722,0.320,0.572,0.531,��쐼,4.6,��
2023/10/14,20:00,0.526,0.800,0.490,0.996,0.722,0.320,0.572,0.531,��쐼,4.2,��
2023/10/14,20:10,0.527,0.801,0.492,0.994,0.721,0.321,0.572,0.532,��쐼,4.5,��
2023/10/14,20:20,0.528,0.801,0.491,0.995,0.721,0.320,0.571,0.531,�쐼,4.2,��
2023/10/14,20:30,0.525,0.801,0.492,0.996,0.718,0.322,0.573,0.531,�쐼,4.0,��
2023/10/14,20:40,0.527,0.803,0.492,0.997,0.721,0.320,0.573,0.531,�쐼,5.1,��
2023/10/14,20:50,0.527,0.801,0.493,0.995,0.721,0.321,0.572,0.531,�쐼,3.9,��
2023/10/14,21:00,0.525,0.805,0.493,0.994,0.721,0.320,0.573,0.531,�쐼,3.3,��
2023/10/14,21:10,0.525,0.800,0.491,0.995,0.720,0.321,0.572,0.531,��쐼,3.5,��
2023/10/14,21:20,0.526,0.798,0.491,0.994,0.723,0.322,0.571,0.531,��쐼,4.2,��
2023/10/14,21:30,0.525,0.799,0.492,0.996,0.721,0.321,0.570,0.533,��쐼,4.6,��
2023/10/14,21:40,0.525,0.798,0.493,0.994,0.721,0.320,0.571,0.531,��쐼,4.8,��
2023/10/14,21:50,0.527,0.801,0.492,0.997,0.721,0.320,0.572,0.531,�쐼,4.4,��
2023/10/14,22:00,0.525,0.800,0.492,0.995,0.720,0.320,0.572,0.530,��쐼,3.3,��
2023/10/14,22:10,0.526,0.802,0.492,0.995,0.719,0.320,0.574,0.531,��,2.0,��
2023/10/14,22:20,0.527,0.802,0.491,0.995,0.720,0.321,0.574,0.531,��,2.5,��
2023/10/14,22:30,0.526,0.799,0.491,0.996,0.723,0.321,0.572,0.531,��,2.0,��
2023/10/14,22:40,0.526,0.800,0.493,0.997,0.722,0.321,0.572,0.531,��쐼,2.2,��
2023/10/14,22:50,0.527,0.800,0.492,0.996,0.719,0.322,0.571,0.531,��쐼,3.2,��
2023/10/14,23:00,0.526,0.802,0.493,0.995,0.720,0.319,0.573,0.531,��쐼,3.8,��
2023/10/14,23:10,0.526,0.802,0.493,0.994,0.722,0.322,0.572,0.530,��,3.3,��
2023/10/14,23:20,0.526,0.800,0.493,0.994,0.720,0.320,0.571,0.532,��쐼,3.7,��
2023/10/14,23:30,0.525,0.801,0.493,0.994,0.721,0.321,0.573,0.532,��,3.8,��
2023/10/14,23:40,0.525,0.801,0.491,0.995,0.720,0.322,0.572,0.534,��쐼,3.4,��
2023/10/14,23:50,0.526,0.801,0.492,0.994,0.720,0.321,0.572,0.531,�쐼,3.1,��
